TimeEDT,TemperatureF,Dew PointF,Humidity,Sea Level PressureIn,VisibilityMPH,Wind Direction,Wind SpeedMPH,Gust SpeedMPH,PrecipitationIn,Events,Conditions,WindDirDegrees,DateUTC
12:15 AM,48.2,35.6,62,30.12,10.0,South,10.4,-,N/A,,Overcast,170,2013-04-19 04:15:00
12:35 AM,48.2,35.6,62,30.12,10.0,South,10.4,-,N/A,,Overcast,180,2013-04-19 04:35:00
12:55 AM,48.2,37.4,66,30.10,10.0,South,8.1,-,N/A,,Overcast,170,2013-04-19 04:55:00
1:15 AM,46.4,37.4,71,30.09,10.0,South,12.7,16.1,N/A,,Overcast,180,2013-04-19 05:15:00
1:35 AM,46.4,37.4,71,30.07,10.0,SSE,11.5,-,N/A,,Overcast,160,2013-04-19 05:35:00
1:55 AM,46.4,37.4,71,30.06,10.0,South,11.5,16.1,N/A,,Overcast,170,2013-04-19 05:55:00
2:15 AM,46.4,37.4,71,30.04,10.0,South,11.5,-,N/A,,Overcast,170,2013-04-19 06:15:00
2:35 AM,46.4,39.2,76,30.04,10.0,South,5.8,-,N/A,,Overcast,190,2013-04-19 06:35:00
2:55 AM,46.4,39.2,76,30.04,10.0,South,9.2,-,N/A,,Overcast,190,2013-04-19 06:55:00
3:15 AM,46.4,39.2,76,30.05,10.0,South,6.9,-,N/A,,Overcast,190,2013-04-19 07:15:00
3:35 AM,46.4,39.2,76,30.04,10.0,South,5.8,-,N/A,,Overcast,190,2013-04-19 07:35:00
3:55 AM,46.4,39.2,76,30.03,10.0,South,8.1,-,N/A,,Overcast,180,2013-04-19 07:55:00
4:15 AM,46.4,39.2,76,30.02,10.0,South,9.2,-,N/A,,Overcast,170,2013-04-19 08:15:00
4:35 AM,46.4,39.2,76,30.01,10.0,South,9.2,-,N/A,,Overcast,180,2013-04-19 08:35:00
4:56 AM,46.4,39.2,76,30.01,10.0,South,6.9,-,N/A,,Overcast,180,2013-04-19 08:56:00
5:15 AM,46.4,39.2,76,30.00,10.0,South,6.9,-,N/A,,Overcast,190,2013-04-19 09:15:00
5:35 AM,48.2,41.0,76,29.99,10.0,South,9.2,-,N/A,,Overcast,190,2013-04-19 09:35:00
5:55 AM,48.2,42.8,82,29.98,10.0,South,4.6,-,N/A,,Overcast,170,2013-04-19 09:55:00
6:15 AM,46.4,41.0,81,29.98,10.0,South,8.1,-,N/A,,Overcast,180,2013-04-19 10:15:00
6:55 AM,48.2,42.8,82,30.00,10.0,South,9.2,-,N/A,,Overcast,190,2013-04-19 10:55:00
7:15 AM,48.2,42.8,82,30.00,10.0,South,8.1,-,N/A,,Overcast,190,2013-04-19 11:15:00
7:35 AM,48.2,44.6,87,29.99,10.0,SSE,5.8,-,N/A,,Overcast,160,2013-04-19 11:35:00
7:55 AM,48.2,44.6,87,29.99,10.0,South,8.1,-,N/A,,Overcast,170,2013-04-19 11:55:00
8:15 AM,48.2,44.6,87,29.98,10.0,South,8.1,-,N/A,,Overcast,170,2013-04-19 12:15:00
8:35 AM,50.0,44.6,82,29.97,10.0,SSE,5.8,-,N/A,,Overcast,160,2013-04-19 12:35:00
8:55 AM,51.8,46.4,82,29.98,10.0,South,8.1,-,N/A,,Overcast,170,2013-04-19 12:55:00
9:15 AM,51.8,46.4,82,29.98,10.0,SSE,6.9,-,N/A,,Overcast,150,2013-04-19 13:15:00
9:35 AM,53.6,48.2,82,29.96,10.0,South,8.1,-,N/A,,Overcast,170,2013-04-19 13:35:00
9:55 AM,55.4,50.0,82,29.95,10.0,South,11.5,-,N/A,,Overcast,190,2013-04-19 13:55:00
10:15 AM,59.0,51.8,77,29.94,10.0,South,11.5,-,N/A,,Overcast,180,2013-04-19 14:15:00
10:55 AM,60.8,51.8,72,29.93,10.0,South,13.8,-,N/A,,Overcast,190,2013-04-19 14:55:00
11:15 AM,62.6,53.6,72,29.92,10.0,South,15.0,-,N/A,,Overcast,190,2013-04-19 15:15:00
11:35 AM,62.6,53.6,72,29.92,10.0,South,12.7,18.4,N/A,,Overcast,190,2013-04-19 15:35:00
11:55 AM,62.6,53.6,72,29.90,10.0,South,11.5,17.3,N/A,,Overcast,170,2013-04-19 15:55:00
12:15 PM,64.4,53.6,68,29.89,10.0,South,9.2,-,N/A,,Mostly Cloudy,190,2013-04-19 16:15:00
12:35 PM,64.4,53.6,68,29.87,10.0,SSE,11.5,16.1,N/A,,Mostly Cloudy,160,2013-04-19 16:35:00
1:15 PM,64.4,53.6,68,29.86,10.0,SSE,10.4,19.6,N/A,,Overcast,150,2013-04-19 17:15:00
1:55 PM,66.2,53.6,64,29.82,10.0,SSE,13.8,19.6,N/A,,Mostly Cloudy,150,2013-04-19 17:55:00
2:15 PM,66.2,53.6,64,29.81,10.0,SSE,13.8,18.4,N/A,,Mostly Cloudy,150,2013-04-19 18:15:00
2:35 PM,66.2,55.4,68,29.80,10.0,SSE,12.7,-,N/A,,Mostly Cloudy,160,2013-04-19 18:35:00
2:55 PM,71.6,55.4,57,29.78,10.0,South,18.4,27.6,N/A,,Mostly Cloudy,180,2013-04-19 18:55:00
3:15 PM,71.6,55.4,57,29.76,10.0,South,20.7,27.6,N/A,,Scattered Clouds,190,2013-04-19 19:15:00
3:35 PM,71.6,53.6,53,29.75,10.0,South,18.4,25.3,N/A,,Partly Cloudy,190,2013-04-19 19:35:00
3:55 PM,71.6,53.6,53,29.75,10.0,South,17.3,26.5,N/A,,Partly Cloudy,180,2013-04-19 19:55:00
4:15 PM,69.8,53.6,56,29.75,10.0,South,18.4,25.3,N/A,,Scattered Clouds,180,2013-04-19 20:15:00
4:35 PM,71.6,55.4,57,29.74,10.0,South,23.0,29.9,N/A,,Scattered Clouds,180,2013-04-19 20:35:00
4:55 PM,69.8,53.6,56,29.74,10.0,South,18.4,28.8,N/A,,Clear,180,2013-04-19 20:55:00
5:15 PM,66.2,53.6,64,29.73,10.0,South,15.0,24.2,N/A,,Mostly Cloudy,180,2013-04-19 21:15:00
5:35 PM,66.2,53.6,64,29.73,10.0,South,16.1,20.7,N/A,,Overcast,180,2013-04-19 21:35:00
5:55 PM,64.4,55.4,73,29.72,10.0,South,11.5,21.9,N/A,,Scattered Clouds,180,2013-04-19 21:55:00
6:15 PM,64.4,55.4,73,29.71,10.0,South,15.0,25.3,N/A,,Partly Cloudy,180,2013-04-19 22:15:00
6:35 PM,64.4,55.4,73,29.71,10.0,South,12.7,20.7,N/A,,Clear,180,2013-04-19 22:35:00
6:55 PM,62.6,55.4,77,29.70,10.0,South,11.5,24.2,N/A,,Clear,180,2013-04-19 22:55:00
7:15 PM,62.6,55.4,77,29.69,10.0,South,16.1,24.2,N/A,,Clear,170,2013-04-19 23:15:00
7:35 PM,60.8,55.4,82,29.67,10.0,South,15.0,25.3,N/A,,Mostly Cloudy,170,2013-04-19 23:35:00
7:55 PM,60.8,55.4,82,29.68,10.0,South,15.0,25.3,N/A,,Overcast,170,2013-04-19 23:55:00
8:15 PM,60.8,55.4,82,29.69,10.0,South,10.4,21.9,N/A,,Overcast,190,2013-04-20 00:15:00
8:35 PM,60.8,55.4,82,29.70,10.0,South,11.5,19.6,N/A,,Overcast,190,2013-04-20 00:35:00
8:55 PM,60.8,55.4,82,29.69,10.0,South,13.8,21.9,N/A,,Overcast,180,2013-04-20 00:55:00
9:15 PM,59.0,55.4,88,29.69,10.0,South,11.5,16.1,N/A,,Overcast,170,2013-04-20 01:15:00
9:35 PM,57.2,55.4,94,29.68,10.0,South,10.4,-,N/A,,Overcast,170,2013-04-20 01:35:00
9:55 PM,57.2,55.4,94,29.66,10.0,SSE,10.4,-,N/A,,Overcast,160,2013-04-20 01:55:00
10:15 PM,57.2,55.4,94,29.64,10.0,South,10.4,-,N/A,,Overcast,170,2013-04-20 02:15:00
10:35 PM,57.2,55.4,94,29.64,10.0,SSE,12.7,18.4,N/A,,Overcast,160,2013-04-20 02:35:00
10:55 PM,57.2,55.4,94,29.63,10.0,South,11.5,-,N/A,,Overcast,170,2013-04-20 02:55:00
11:15 PM,57.2,55.4,94,29.62,10.0,South,15.0,19.6,N/A,,Overcast,170,2013-04-20 03:15:00
11:35 PM,57.2,55.4,94,29.60,10.0,South,13.8,20.7,N/A,,Overcast,170,2013-04-20 03:35:00
11:55 PM,57.2,55.4,94,29.60,10.0,South,13.8,17.3,N/A,,Overcast,170,2013-04-20 03:55:00